M I D A S
Marine Information and Data Acquisition System
Tripno 1188 of the Zeeleeuw from 2006-11-23 08:00:51 to 2006-11-23 12:56:23
Back to CruiseResearch ActivitiesStationsMapUnderway DataData graphs

EquipmentUnitsComment
TimeDGPSUTC
LatitudeDGPSDM.mWGS84
LongitudeDGPSDM.mWGS84
HeadingGyrodeg 
SOGDGPSknotsSpeed over ground
COGDGPSdegCourse over ground
DepthEcho soundermeters200 kHz
Missing or incorrect values are displayed as -999
Navigation data collected by the RV Zeeleeuw from 2006-11-23 08:01:19 to 2006-11-23 13:12:53
                                                                                    Next 1000 lines
Time Latitude Longitude Heading SOG COG Depth
2006-11-23 08:01:29 51°13.598 2°56.09 112.5 1.1 293 6.1
2006-11-23 08:01:34 51°13.599 2°56.087 112.5 1.5 297 6.2
2006-11-23 08:01:39 51°13.6 2°56.082 112.5 1.9 295 6.3
2006-11-23 08:01:44 51°13.601 2°56.078 112.4 2.2 294 -999
2006-11-23 08:01:49 51°13.602 2°56.073 111.9 2.5 292 -999
2006-11-23 08:01:55 51°13.604 2°56.066 111.5 2.8 292 -999
2006-11-23 08:01:59 51°13.605 2°56.061 111.4 2.9 291 -999
2006-11-23 08:02:05 51°13.607 2°56.053 111.5 3.1 292 -999
2006-11-23 08:02:09 51°13.609 2°56.048 111.6 3.3 291 -999
2006-11-23 08:02:15 51°13.611 2°56.039 111.6 3.4 294 -999
2006-11-23 08:02:19 51°13.612 2°56.033 111.3 3.6 291 -999
2006-11-23 08:02:25 51°13.615 2°56.024 111 3.9 292 -999
2006-11-23 08:02:29 51°13.617 2°56.016 110.8 4.2 290 -999
2006-11-23 08:02:34 51°13.619 2°56.007 110.8 4.5 290 -999
2006-11-23 08:02:39 51°13.621 2°55.998 111.1 4.6 290 -999
2006-11-23 08:02:45 51°13.623 2°55.986 111.6 4.7 290 -999
2006-11-23 08:02:49 51°13.625 2°55.978 112.1 4.8 290 -999
2006-11-23 08:02:55 51°13.628 2°55.966 113 4.9 291 -999
2006-11-23 08:02:59 51°13.63 2°55.958 114.1 4.9 291 -999
2006-11-23 08:03:05 51°13.633 2°55.945 115.3 5 292 -999
2006-11-23 08:03:10 51°13.636 2°55.935 116.6 5 293 -999
2006-11-23 08:03:15 51°13.639 2°55.925 118.1 5.1 295 -999
2006-11-23 08:03:19 51°13.641 2°55.917 119.7 5.2 295 -999
2006-11-23 08:03:25 51°13.645 2°55.905 120.7 5.1 297 -999
2006-11-23 08:03:29 51°13.648 2°55.897 121.7 5 298 -999
2006-11-23 08:03:35 51°13.652 2°55.886 122.7 4.9 298 -999
2006-11-23 08:03:39 51°13.654 2°55.878 124.1 4.8 300 4.7
2006-11-23 08:03:43 51°13.657 2°55.871 125 4.7 301 4.8
2006-11-23 08:03:47 51°13.66 2°55.864 126 4.7 303 4.8
2006-11-23 08:03:54 51°13.665 2°55.852 127.2 4.6 305 8.4
2006-11-23 08:03:59 51°13.669 2°55.844 128.3 4.6 306 8.2
2006-11-23 08:04:04 51°13.673 2°55.836 128.6 4.7 307 4.8
2006-11-23 08:04:09 51°13.677 2°55.827 128.4 4.9 306 -999
2006-11-23 08:04:15 51°13.682 2°55.817 128 4.9 308 -999
2006-11-23 08:04:19 51°13.685 2°55.81 128.5 4.8 308 -999
2006-11-23 08:04:25 51°13.69 2°55.8 129.6 4.9 309 -999
2006-11-23 08:04:29 51°13.694 2°55.794 130.3 4.9 309 8.9
2006-11-23 08:04:34 51°13.698 2°55.785 130.7 5 310 -999
2006-11-23 08:04:39 51°13.703 2°55.776 130.2 5 309 -999
2006-11-23 08:04:45 51°13.707 2°55.766 128.7 4.8 307 -999
2006-11-23 08:04:49 51°13.71 2°55.76 126.7 4.5 305 -999
2006-11-23 08:04:55 51°13.714 2°55.751 124.5 4.3 303 -999
2006-11-23 08:04:59 51°13.716 2°55.744 121.9 4.1 301 12.6
2006-11-23 08:05:03 51°13.718 2°55.739 119.7 3.8 300 11.7
2006-11-23 08:05:09 51°13.721 2°55.732 117.8 3.1 298 11.1
2006-11-23 08:05:14 51°13.722 2°55.728 114.9 2 295 10.8
2006-11-23 08:05:19 51°13.722 2°55.728 111.4 0.9 312 10.7
2006-11-23 08:05:23 51°13.723 2°55.728 104.5 0.3 26 10.7
2006-11-23 08:05:29 51°13.723 2°55.729 97.9 0.6 51 10.8
2006-11-23 08:05:34 51°13.724 2°55.73 91.8 0.7 74 10.9
2006-11-23 08:05:38 51°13.724 2°55.732 86.7 0.9 65 11.1
2006-11-23 08:05:44 51°13.725 2°55.734 81.5 1.1 68 11.1
2006-11-23 08:05:49 51°13.726 2°55.737 76.3 1.3 57 11
2006-11-23 08:05:54 51°13.727 2°55.739 70.8 1.4 52 11.3
2006-11-23 08:05:59 51°13.729 2°55.742 65 1.5 47 11.3
2006-11-23 08:06:04 51°13.73 2°55.744 59.1 1.4 41 10.8
2006-11-23 08:06:09 51°13.732 2°55.745 55.4 1.3 30 10.8
2006-11-23 08:06:14 51°13.733 2°55.746 50.8 0.9 19 10.8
2006-11-23 08:06:19 51°13.734 2°55.745 46.5 0.6 352 10.6
2006-11-23 08:06:24 51°13.734 2°55.744 42.3 0.4 305 10.5
2006-11-23 08:06:29 51°13.734 2°55.743 39.3 0.7 261 10.4
2006-11-23 08:06:34 51°13.733 2°55.741 35.5 1 236 10.4
2006-11-23 08:06:39 51°13.731 2°55.739 32.7 1.4 227 10.4
2006-11-23 08:06:43 51°13.729 2°55.737 30.5 1.8 219 10.6
2006-11-23 08:06:49 51°13.727 2°55.734 28.3 1.9 218 -999
2006-11-23 08:06:55 51°13.724 2°55.731 26.8 1.7 217 -999
2006-11-23 08:07:00 51°13.723 2°55.728 26 1.7 219 -999
2006-11-23 08:07:05 51°13.721 2°55.727 25.4 1.4 220 10.6
2006-11-23 08:07:09 51°13.721 2°55.726 24.8 0.8 233 -999
2006-11-23 08:07:14 51°13.721 2°55.725 22.8 0.4 267 10.6
2006-11-23 08:07:19 51°13.722 2°55.725 19.7 0.6 334 10.4
2006-11-23 08:07:23 51°13.723 2°55.725 14.5 1.1 347 10.3
2006-11-23 08:07:29 51°13.726 2°55.724 8.4 1.5 346 4.8
2006-11-23 08:07:34 51°13.728 2°55.723 2 1.9 344 9.6
2006-11-23 08:07:39 51°13.731 2°55.721 355.2 2.2 340 9.6
2006-11-23 08:07:44 51°13.735 2°55.718 348.4 2.6 336 -999
2006-11-23 08:07:49 51°13.738 2°55.715 342.5 3.1 332 5.1
2006-11-23 08:07:54 51°13.743 2°55.71 338.2 3.6 329 9.3
2006-11-23 08:07:59 51°13.747 2°55.705 335.6 4 326 9.3
2006-11-23 08:08:03 51°13.752 2°55.701 333.9 4.4 326 9.2
2006-11-23 08:08:09 51°13.759 2°55.694 334.9 4.8 329 9.2
2006-11-23 08:08:14 51°13.765 2°55.689 336.7 5.1 332 9.2
2006-11-23 08:08:19 51°13.772 2°55.683 337.4 5.4 332 9.1
2006-11-23 08:08:24 51°13.779 2°55.677 336.8 5.7 331 9
2006-11-23 08:08:29 51°13.786 2°55.671 336 6 331 9.1
2006-11-23 08:08:33 51°13.792 2°55.665 336 6.3 331 9.3
2006-11-23 08:08:39 51°13.802 2°55.657 336.3 6.5 333 9.5
2006-11-23 08:08:44 51°13.81 2°55.651 337.4 6.7 334 9.5
2006-11-23 08:08:49 51°13.819 2°55.644 337.9 6.9 334 9.4
2006-11-23 08:08:54 51°13.827 2°55.637 338 7 334 9.4
2006-11-23 08:08:59 51°13.836 2°55.631 338 7 334 9.3
2006-11-23 08:09:03 51°13.843 2°55.625 338.4 7.1 335 9.1
2006-11-23 08:09:09 51°13.854 2°55.617 338.6 7.1 335 8.9
2006-11-23 08:09:14 51°13.863 2°55.611 338.7 7.1 335 8.8
2006-11-23 08:09:19 51°13.872 2°55.604 338.7 7.1 334 8.9
2006-11-23 08:09:24 51°13.881 2°55.597 338.4 7.2 334 8.9
2006-11-23 08:09:29 51°13.89 2°55.59 338.2 7.2 334 9.3
2006-11-23 08:09:34 51°13.899 2°55.583 338.4 7.2 334 9.5
2006-11-23 08:09:39 51°13.908 2°55.576 338.9 7.3 335 9.3
2006-11-23 08:09:44 51°13.917 2°55.569 338.9 7.3 335 9.9
2006-11-23 08:09:49 51°13.926 2°55.562 339.1 7.3 335 9.1
2006-11-23 08:09:54 51°13.936 2°55.556 339.8 7.3 335 9.4
2006-11-23 08:09:59 51°13.945 2°55.549 340.4 7.3 336 9.2
2006-11-23 08:10:04 51°13.954 2°55.543 340.4 7.3 336 9.2
2006-11-23 08:10:09 51°13.963 2°55.536 340.4 7.3 337 9.1
2006-11-23 08:10:14 51°13.972 2°55.53 340.4 7.2 336 9.1
2006-11-23 08:10:19 51°13.981 2°55.524 340.4 7.1 337 9.4
2006-11-23 08:10:23 51°13.988 2°55.519 340.8 7 337 9.5
2006-11-23 08:10:29 51°13.999 2°55.512 340.8 6.9 336 9.5
2006-11-23 08:10:34 51°14.008 2°55.506 340.2 6.8 336 9.4
2006-11-23 08:10:39 51°14.016 2°55.5 339.8 6.8 336 8.9
2006-11-23 08:10:44 51°14.025 2°55.494 339.6 6.7 336 9.2
2006-11-23 08:10:49 51°14.033 2°55.488 339.6 6.7 336 9.2
2006-11-23 08:10:54 51°14.042 2°55.482 339.6 6.5 336 9.1
2006-11-23 08:10:59 51°14.05 2°55.476 339.9 6.5 335 9.5
2006-11-23 08:11:03 51°14.056 2°55.471 340.4 6.5 336 9.4
2006-11-23 08:11:09 51°14.066 2°55.464 340.9 6.5 336 9.5
2006-11-23 08:11:14 51°14.074 2°55.458 341.1 6.4 336 9.6
2006-11-23 08:11:19 51°14.082 2°55.452 341 6.4 336 9.6
2006-11-23 08:11:24 51°14.09 2°55.446 340.4 6.4 335 9.5
2006-11-23 08:11:29 51°14.098 2°55.44 340.3 6.3 335 9.5
2006-11-23 08:11:34 51°14.106 2°55.434 340.4 6.5 335 9.6
2006-11-23 08:11:39 51°14.114 2°55.427 340.4 6.7 335 9.6
2006-11-23 08:11:44 51°14.123 2°55.421 339.6 6.9 334 9.6
2006-11-23 08:11:49 51°14.132 2°55.413 338.9 7.1 333 9.4
2006-11-23 08:11:54 51°14.141 2°55.406 337.9 7.3 333 9.7
2006-11-23 08:11:59 51°14.15 2°55.398 337.1 7.6 332 9.6
2006-11-23 08:12:04 51°14.161 2°55.391 336.5 7.9 332 -999
2006-11-23 08:12:09 51°14.171 2°55.382 335.3 8.1 331 9.8
2006-11-23 08:12:14 51°14.181 2°55.372 333.4 8.5 329 -999
2006-11-23 08:12:19 51°14.191 2°55.361 331.9 8.8 327 -999
2006-11-23 08:12:24 51°14.201 2°55.35 330.8 9.1 326 -999
2006-11-23 08:12:29 51°14.212 2°55.338 329.4 9.3 324 9.7
2006-11-23 08:12:34 51°14.222 2°55.325 328.1 9.5 323 10.5
2006-11-23 08:12:39 51°14.232 2°55.311 326.8 9.7 321 10.5
2006-11-23 08:12:44 51°14.242 2°55.297 325.2 9.7 319 9.7
2006-11-23 08:12:49 51°14.252 2°55.281 323.1 9.8 317 9.6
2006-11-23 08:12:54 51°14.262 2°55.266 320.3 9.9 315 9.3
2006-11-23 08:12:59 51°14.271 2°55.25 318.8 10 313 9.6
2006-11-23 08:13:03 51°14.279 2°55.236 317.8 10 313 9.6
2006-11-23 08:13:09 51°14.29 2°55.216 317 10.1 312 9.6
2006-11-23 08:13:14 51°14.299 2°55.2 316.3 10.1 311 9.5
2006-11-23 08:13:19 51°14.308 2°55.182 315.7 10.1 311 9.1
2006-11-23 08:13:23 51°14.316 2°55.169 315.6 10.1 311 9.1
2006-11-23 08:13:29 51°14.327 2°55.149 315.8 10.2 312 9.3
2006-11-23 08:13:34 51°14.336 2°55.133 316.5 10.2 312 9.4
2006-11-23 08:13:39 51°14.346 2°55.116 317.1 10.2 313 9.1
2006-11-23 08:13:43 51°14.354 2°55.103 318.1 10.3 314 9.2
2006-11-23 08:13:49 51°14.367 2°55.085 319.3 10.3 317 9.3
2006-11-23 08:13:54 51°14.378 2°55.07 322.6 10.4 321 9.3
2006-11-23 08:13:59 51°14.39 2°55.057 326.7 10.4 325 9.3
2006-11-23 08:14:04 51°14.402 2°55.045 331.9 10.5 328 9.3
2006-11-23 08:14:09 51°14.415 2°55.034 334.9 10.6 331 9.2
2006-11-23 08:14:14 51°14.429 2°55.022 336.7 10.8 331 9.3
2006-11-23 08:14:19 51°14.442 2°55.012 337.6 11 333 8.9
2006-11-23 08:14:23 51°14.453 2°55.003 339.3 11.1 333 9
2006-11-23 08:14:29 51°14.47 2°54.99 340.5 11.4 334 8.8
2006-11-23 08:14:34 51°14.485 2°54.979 341 11.5 334 8.6
2006-11-23 08:14:38 51°14.496 2°54.969 341.4 11.6 334 8.5
2006-11-23 08:14:44 51°14.514 2°54.956 341.4 11.7 334 8.6
2006-11-23 08:14:49 51°14.528 2°54.944 341.3 11.8 333 8.4
2006-11-23 08:14:54 51°14.543 2°54.933 341.6 11.8 333 8.3
2006-11-23 08:14:59 51°14.558 2°54.92 341.3 12 333 8.5
2006-11-23 08:15:03 51°14.57 2°54.911 340.5 12 333 8.4
2006-11-23 08:15:09 51°14.587 2°54.896 340.1 12 333 8.2
2006-11-23 08:15:14 51°14.602 2°54.883 339.5 12 331 8.2
2006-11-23 08:15:19 51°14.616 2°54.869 338.9 12 329 8.3
2006-11-23 08:15:24 51°14.63 2°54.855 337.8 12 329 8.2
2006-11-23 08:15:29 51°14.644 2°54.841 336.5 12.1 327 8.2
2006-11-23 08:15:34 51°14.658 2°54.827 336 12 327 8.2
2006-11-23 08:15:39 51°14.672 2°54.813 335.6 12 327 8.2
2006-11-23 08:15:43 51°14.683 2°54.801 335.5 11.9 327 8.1
2006-11-23 08:15:49 51°14.7 2°54.784 335.9 12 327 8.1
2006-11-23 08:15:54 51°14.714 2°54.77 336 12 328 8.2
2006-11-23 08:15:59 51°14.728 2°54.756 336.5 12 328 8
2006-11-23 08:16:03 51°14.74 2°54.745 336.7 12 329 8.1
2006-11-23 08:16:09 51°14.757 2°54.728 336.7 12 328 8.2
2006-11-23 08:16:14 51°14.771 2°54.714 336.4 12 328 8.3
2006-11-23 08:16:18 51°14.782 2°54.703 336 12 328 8.2
2006-11-23 08:16:24 51°14.799 2°54.686 335.6 12.1 327 8.2
2006-11-23 08:16:29 51°14.814 2°54.672 335.3 12.2 328 8.3
2006-11-23 08:16:34 51°14.828 2°54.657 335.3 12.4 327 8.3
2006-11-23 08:16:39 51°14.843 2°54.642 335.3 12.5 328 8.3
2006-11-23 08:16:44 51°14.858 2°54.628 335.7 12.6 328 8.5
2006-11-23 08:16:49 51°14.873 2°54.613 336.1 12.7 329 8.5
2006-11-23 08:16:54 51°14.889 2°54.598 336.4 12.8 329 8.2
2006-11-23 08:16:59 51°14.904 2°54.583 336 12.9 329 8.2
2006-11-23 08:17:04 51°14.919 2°54.569 336.1 12.9 329 8
2006-11-23 08:17:09 51°14.934 2°54.554 336.8 12.9 330 8.3
2006-11-23 08:17:14 51°14.95 2°54.539 336.9 12.9 329 8.1
2006-11-23 08:17:19 51°14.965 2°54.525 336.7 12.9 329 7.8
2006-11-23 08:17:23 51°14.978 2°54.514 336.8 13 329 7.7
2006-11-23 08:17:29 51°14.996 2°54.495 336.3 13 328 7.5
2006-11-23 08:17:34 51°15.011 2°54.482 336.7 12.9 330 7.4
2006-11-23 08:17:39 51°15.027 2°54.467 337.4 12.8 329 7.4
2006-11-23 08:17:43 51°15.04 2°54.456 337.5 12.8 331 7.4
2006-11-23 08:17:49 51°15.058 2°54.438 337.6 12.8 329 7.4
2006-11-23 08:17:54 51°15.073 2°54.423 337.6 12.9 329 7.5
2006-11-23 08:17:59 51°15.088 2°54.409 336.5 12.8 328 7.4
2006-11-23 08:18:04 51°15.103 2°54.393 335.4 12.8 326 7.5
2006-11-23 08:18:09 51°15.118 2°54.376 334.1 12.9 325 7.6
2006-11-23 08:18:14 51°15.133 2°54.36 333.1 12.9 325 7.6
2006-11-23 08:18:19 51°15.147 2°54.343 332.4 13 325 7.6
2006-11-23 08:18:24 51°15.162 2°54.327 332.6 12.9 326 7.7
2006-11-23 08:18:29 51°15.177 2°54.311 333.3 13 326 7.6
2006-11-23 08:18:34 51°15.192 2°54.296 334.4 13.1 328 7.8
2006-11-23 08:18:39 51°15.208 2°54.282 335.9 13.1 329 7.7
2006-11-23 08:18:44 51°15.224 2°54.267 337.7 13.1 331 7.9
2006-11-23 08:18:49 51°15.24 2°54.255 338.5 13.1 333 7.8
2006-11-23 08:18:54 51°15.257 2°54.24 340.5 13.2 333 8
2006-11-23 08:18:59 51°15.273 2°54.229 341.3 13.2 335 7.9
2006-11-23 08:19:03 51°15.286 2°54.218 342.4 13.2 333 7.9
2006-11-23 08:19:09 51°15.306 2°54.203 342.2 13.2 334 8.1
2006-11-23 08:19:14 51°15.322 2°54.189 341.6 13.3 333 8.2
2006-11-23 08:19:19 51°15.338 2°54.175 340.8 13.3 332 8.2
2006-11-23 08:19:23 51°15.351 2°54.163 339.6 13.4 330 8.3
2006-11-23 08:19:29 51°15.37 2°54.144 337.8 13.4 328 8.3
2006-11-23 08:19:34 51°15.386 2°54.129 336.6 13.3 328 8.3
2006-11-23 08:19:39 51°15.402 2°54.111 335.2 13.5 326 8.5
2006-11-23 08:19:43 51°15.414 2°54.098 334.2 13.4 326 8.5
2006-11-23 08:19:49 51°15.432 2°54.078 334.4 13.5 326 8.6
2006-11-23 08:19:54 51°15.447 2°54.062 334.6 13.5 326 8.6
2006-11-23 08:19:59 51°15.464 2°54.045 334.9 13.5 327 8.8
2006-11-23 08:20:03 51°15.476 2°54.032 335.3 13.6 327 8.9
2006-11-23 08:20:09 51°15.495 2°54.013 335.9 13.5 328 8.8
2006-11-23 08:20:14 51°15.511 2°53.996 336.7 13.6 328 9
2006-11-23 08:20:19 51°15.527 2°53.981 337.1 13.5 328 8.8
2006-11-23 08:20:23 51°15.54 2°53.968 337.8 13.5 329 9
2006-11-23 08:20:29 51°15.56 2°53.949 337.7 13.7 329 9.2
2006-11-23 08:20:34 51°15.575 2°53.934 338.2 13.6 329 9.2
2006-11-23 08:20:39 51°15.591 2°53.919 338.4 13.7 328 9.3
2006-11-23 08:20:43 51°15.604 2°53.907 338.2 13.5 329 9.4
2006-11-23 08:20:49 51°15.623 2°53.889 338.2 13.6 328 9.2
2006-11-23 08:20:54 51°15.64 2°53.873 338.3 13.5 330 9.5
2006-11-23 08:20:59 51°15.656 2°53.858 337.7 13.5 329 9.4
2006-11-23 08:21:04 51°15.672 2°53.841 337.6 13.6 328 9.6
2006-11-23 08:21:09 51°15.688 2°53.826 337.5 13.6 328 9.4
2006-11-23 08:21:14 51°15.703 2°53.81 337.8 13.5 328 9.4
2006-11-23 08:21:19 51°15.72 2°53.794 337.4 13.5 329 9.6
2006-11-23 08:21:23 51°15.732 2°53.78 336.8 13.6 327 9.6
2006-11-23 08:21:29 51°15.751 2°53.762 337.3 13.6 328 9.6
2006-11-23 08:21:34 51°15.768 2°53.745 337.1 13.6 328 9.9
2006-11-23 08:21:39 51°15.784 2°53.73 336.9 13.6 328 9.7
2006-11-23 08:21:44 51°15.799 2°53.714 336.8 13.6 327 9.8
2006-11-23 08:21:49 51°15.816 2°53.697 337.1 13.5 328 10
2006-11-23 08:21:54 51°15.832 2°53.681 337.3 13.6 328 10
2006-11-23 08:21:59 51°15.848 2°53.666 337.4 13.7 329 9.9
2006-11-23 08:22:03 51°15.861 2°53.652 337.2 13.7 327 10.1
2006-11-23 08:22:09 51°15.88 2°53.633 337.1 13.7 328 10.2
2006-11-23 08:22:14 51°15.896 2°53.616 336.7 13.7 327 10.2
2006-11-23 08:22:19 51°15.911 2°53.601 336.3 13.6 327 10
2006-11-23 08:22:24 51°15.928 2°53.584 336 13.6 327 10.3
2006-11-23 08:22:29 51°15.942 2°53.568 336 13.6 327 10.2
2006-11-23 08:22:34 51°15.959 2°53.552 336.2 13.5 327 10.3
2006-11-23 08:22:39 51°15.975 2°53.535 336.3 13.6 328 10.4
2006-11-23 08:22:44 51°15.991 2°53.519 336.9 13.7 328 10.4
2006-11-23 08:22:49 51°16.007 2°53.504 337 13.6 328 10.3
2006-11-23 08:22:54 51°16.022 2°53.488 337.7 13.6 328 10.4
2006-11-23 08:22:59 51°16.038 2°53.471 337.4 13.5 327 10.4
2006-11-23 08:23:04 51°16.054 2°53.455 336.9 13.6 329 10.7
2006-11-23 08:23:09 51°16.07 2°53.439 336.9 13.6 328 10.5
2006-11-23 08:23:14 51°16.086 2°53.424 337.3 13.6 329 10.6
2006-11-23 08:23:19 51°16.102 2°53.407 337.4 13.7 327 10.7
2006-11-23 08:23:23 51°16.115 2°53.394 337 13.6 328 10.6
2006-11-23 08:23:29 51°16.134 2°53.375 337.1 13.7 328 10.8
2006-11-23 08:23:34 51°16.15 2°53.359 336.8 13.6 328 10.7
2006-11-23 08:23:39 51°16.166 2°53.343 337.3 13.6 328 10.8
2006-11-23 08:23:44 51°16.182 2°53.327 337 13.7 328 10.8
2006-11-23 08:23:49 51°16.199 2°53.312 337.5 13.7 328 10.9
2006-11-23 08:23:54 51°16.214 2°53.295 337.1 13.6 328 10.9
2006-11-23 08:23:59 51°16.23 2°53.28 337.3 13.6 329 11
2006-11-23 08:24:04 51°16.246 2°53.264 337.4 13.6 328 10.9
2006-11-23 08:24:09 51°16.262 2°53.248 337.4 13.6 328 10.8
2006-11-23 08:24:14 51°16.278 2°53.231 336.8 13.6 327 11
2006-11-23 08:24:19 51°16.293 2°53.216 336.7 13.6 327 11
2006-11-23 08:24:23 51°16.306 2°53.203 336.8 13.6 328 11
2006-11-23 08:24:29 51°16.326 2°53.183 336.8 13.6 328 11
2006-11-23 08:24:34 51°16.342 2°53.167 336.7 13.6 328 11
2006-11-23 08:24:39 51°16.357 2°53.152 336.7 13.5 328 10.9
2006-11-23 08:24:44 51°16.374 2°53.136 337.6 13.5 329 11.1
2006-11-23 08:24:49 51°16.39 2°53.121 337.5 13.6 329 10.8
2006-11-23 08:24:54 51°16.405 2°53.105 337.5 13.6 329 10.9
2006-11-23 08:24:59 51°16.422 2°53.089 337.5 13.5 329 10.9
2006-11-23 08:25:03 51°16.434 2°53.076 337.4 13.5 328 10.8
2006-11-23 08:25:09 51°16.454 2°53.058 337.2 13.6 328 11.1
2006-11-23 08:25:14 51°16.469 2°53.043 337 13.5 328 10.9
2006-11-23 08:25:19 51°16.485 2°53.027 337.5 13.5 329 11
2006-11-23 08:25:24 51°16.501 2°53.012 337.4 13.5 329 10.5
2006-11-23 08:25:29 51°16.518 2°52.997 337.7 13.4 329 10.6
2006-11-23 08:25:34 51°16.534 2°52.981 338 13.5 330 10.7
2006-11-23 08:25:39 51°16.55 2°52.966 337.2 13.5 328 10.6
2006-11-23 08:25:44 51°16.566 2°52.951 337.5 13.4 330 10.5
2006-11-23 08:25:49 51°16.582 2°52.936 337.3 13.4 328 10.4
2006-11-23 08:25:54 51°16.598 2°52.92 337.2 13.4 330 10.7
2006-11-23 08:25:59 51°16.614 2°52.905 337.6 13.4 329 10.7
2006-11-23 08:26:04 51°16.63 2°52.892 338.1 13.4 331 10.4
2006-11-23 08:26:09 51°16.647 2°52.877 338.5 13.3 331 10.4
2006-11-23 08:26:14 51°16.662 2°52.864 339.1 13.4 332 10.3
2006-11-23 08:26:19 51°16.679 2°52.85 339.5 13.3 331 10.2
2006-11-23 08:26:23 51°16.692 2°52.839 339.1 13.2 333 10.2
2006-11-23 08:26:29 51°16.711 2°52.822 339 13.2 333 9.7
2006-11-23 08:26:34 51°16.727 2°52.808 340.3 13.2 331 9.3
2006-11-23 08:26:39 51°16.744 2°52.794 340.3 13.2 332 9.2
2006-11-23 08:26:43 51°16.756 2°52.783 339.4 13.2 331 9
2006-11-23 08:26:49 51°16.775 2°52.767 339.6 13 331 8.9
2006-11-23 08:26:54 51°16.791 2°52.752 338.8 13 329 8.8
2006-11-23 08:26:59 51°16.806 2°52.738 339 13 331 8.9
2006-11-23 08:27:04 51°16.821 2°52.724 338.7 12.8 330 8.8
2006-11-23 08:27:09 51°16.838 2°52.709 338.7 12.9 331 8.9
2006-11-23 08:27:14 51°16.853 2°52.696 338.6 12.9 331 8.5
2006-11-23 08:27:19 51°16.869 2°52.681 339.6 13 331 8.6
2006-11-23 08:27:24 51°16.884 2°52.668 339.1 12.9 330 8.5
2006-11-23 08:27:29 51°16.9 2°52.654 339.7 13 331 8.6
2006-11-23 08:27:34 51°16.916 2°52.64 339.7 13 330 8.7
2006-11-23 08:27:39 51°16.932 2°52.626 339.7 13 331 8.9
2006-11-23 08:27:44 51°16.948 2°52.612 338.9 13.1 331 9.1
2006-11-23 08:27:49 51°16.964 2°52.599 339.4 13.2 333 9.2
2006-11-23 08:27:54 51°16.98 2°52.585 341.1 13.2 333 9.1
2006-11-23 08:27:59 51°16.996 2°52.573 342.6 13.2 335 9
2006-11-23 08:28:03 51°17.01 2°52.564 344.8 13.1 337 8.9
2006-11-23 08:28:08 51°17.028 2°52.555 347.2 13.1 340 8.7
2006-11-23 08:28:14 51°17.048 2°52.544 349.6 13.1 342 8.6
2006-11-23 08:28:19 51°17.065 2°52.536 351.2 12.9 345 8.8
2006-11-23 08:28:24 51°17.082 2°52.53 352.7 12.8 346 8.7
2006-11-23 08:28:29 51°17.1 2°52.526 356 12.9 349 8.7
2006-11-23 08:28:34 51°17.118 2°52.522 357.7 12.9 351 8.8
2006-11-23 08:28:39 51°17.135 2°52.517 359.3 12.9 351 8.8
2006-11-23 08:28:43 51°17.15 2°52.515 1.4 12.9 354 8.9
2006-11-23 08:28:49 51°17.171 2°52.512 2.2 12.9 355 9
2006-11-23 08:28:54 51°17.189 2°52.509 2.5 12.9 355 9.1
2006-11-23 08:28:59 51°17.207 2°52.508 3 13 357 9
2006-11-23 08:29:03 51°17.221 2°52.505 3.6 13 354 9
2006-11-23 08:29:09 51°17.243 2°52.503 3.5 12.9 356 9.1
2006-11-23 08:29:14 51°17.261 2°52.5 3.9 13 355 9.2
2006-11-23 08:29:19 51°17.278 2°52.497 2.5 13 353 9.2
2006-11-23 08:29:24 51°17.297 2°52.494 2.9 13 354 9.2
2006-11-23 08:29:29 51°17.315 2°52.491 2 13 353 9.3
2006-11-23 08:29:34 51°17.332 2°52.487 1.4 13.1 353 9.2
2006-11-23 08:29:39 51°17.351 2°52.484 1 13.1 352 9.2
2006-11-23 08:29:44 51°17.369 2°52.479 1.1 13.2 351 9.1
2006-11-23 08:29:49 51°17.387 2°52.475 0.7 13.1 353 9.2
2006-11-23 08:29:54 51°17.405 2°52.47 359.6 13.1 350 9.4
2006-11-23 08:29:59 51°17.422 2°52.466 0.1 13.1 354 9.4
2006-11-23 08:30:03 51°17.437 2°52.461 -999 13.1 349 9.4
2006-11-23 08:30:08 51°17.454 2°52.458 359.8 13.1 353 9.4
2006-11-23 08:30:14 51°17.476 2°52.452 0.4 13.1 349 9.4
2006-11-23 08:30:19 51°17.494 2°52.449 0.1 13 354 9.4
2006-11-23 08:30:24 51°17.512 2°52.446 1.2 13.1 353 9.5
2006-11-23 08:30:29 51°17.53 2°52.442 2.2 13 353 9.5
2006-11-23 08:30:34 51°17.548 2°52.441 3 13 356 9.5
2006-11-23 08:30:39 51°17.567 2°52.438 4 13 356 9.6
2006-11-23 08:30:44 51°17.584 2°52.437 4.1 13 355 9.5
2006-11-23 08:30:49 51°17.602 2°52.436 5.3 13 358 9.4
2006-11-23 08:30:54 51°17.62 2°52.434 6.5 12.9 355 9.4
2006-11-23 08:30:59 51°17.638 2°52.434 5.7 12.9 359 9.2
2006-11-23 08:31:04 51°17.656 2°52.432 6.3 12.9 356 9.2
2006-11-23 08:31:09 51°17.674 2°52.43 6.3 13 358 9.2
2006-11-23 08:31:14 51°17.692 2°52.43 5.3 13 357 9.3
2006-11-23 08:31:19 51°17.71 2°52.429 6.8 13 359 9.4
2006-11-23 08:31:24 51°17.728 2°52.43 7.9 13 -999 9.6
2006-11-23 08:31:29 51°17.746 2°52.429 7 12.9 359 9.6
2006-11-23 08:31:34 51°17.764 2°52.429 7.2 12.8 -999 9.4
2006-11-23 08:31:39 51°17.782 2°52.429 9.5 13 1 9.4
2006-11-23 08:31:44 51°17.799 2°52.431 10 13 3 9.4
2006-11-23 08:31:49 51°17.818 2°52.433 10.3 12.8 4 9.6
2006-11-23 08:31:54 51°17.836 2°52.435 11.6 13 6 9.6
2006-11-23 08:31:59 51°17.854 2°52.437 12.4 13 3 9.7
2006-11-23 08:32:04 51°17.871 2°52.441 14.1 13 9 9.7
2006-11-23 08:32:09 51°17.889 2°52.443 13.7 12.9 3 9.7
2006-11-23 08:32:14 51°17.907 2°52.447 13.7 12.9 9 9.6
2006-11-23 08:32:19 51°17.925 2°52.449 13.6 13 3 9.7
2006-11-23 08:32:24 51°17.942 2°52.453 14 12.9 7 9.8
2006-11-23 08:32:29 51°17.96 2°52.456 14.3 12.8 6 9.8
2006-11-23 08:32:34 51°17.978 2°52.461 15.1 13 10 9.8
2006-11-23 08:32:39 51°17.996 2°52.464 15.9 13.1 6 9.8
2006-11-23 08:32:43 51°18.01 2°52.468 15.1 12.8 10 9.9
2006-11-23 08:32:49 51°18.031 2°52.477 18.5 12.9 15 9.8
2006-11-23 08:32:54 51°18.048 2°52.483 20.9 13.1 13 9.8
2006-11-23 08:32:59 51°18.065 2°52.494 22.5 13 20 9.8
2006-11-23 08:33:04 51°18.082 2°52.505 27.6 13 23 9.9
2006-11-23 08:33:09 51°18.097 2°52.519 30.3 12.9 26 9.9
2006-11-23 08:33:14 51°18.113 2°52.532 32.4 12.6 27 9.8
2006-11-23 08:33:19 51°18.127 2°52.548 37.7 12.9 36 9.8
2006-11-23 08:33:24 51°18.142 2°52.565 38.1 13 30 9.9
2006-11-23 08:33:29 51°18.155 2°52.583 43.2 12.9 43 10
2006-11-23 08:33:34 51°18.169 2°52.6 43.5 12.7 34 10
2006-11-23 08:33:39 51°18.182 2°52.62 45.7 12.8 45 10
2006-11-23 08:33:44 51°18.196 2°52.638 45.8 12.9 39 10.1
2006-11-23 08:33:49 51°18.208 2°52.658 47.1 12.8 45 10.2
2006-11-23 08:33:54 51°18.221 2°52.678 49.2 12.8 45 10.3
2006-11-23 08:33:59 51°18.233 2°52.698 49.5 12.6 45 10.2
2006-11-23 08:34:04 51°18.245 2°52.718 51.8 12.6 48 10.3
2006-11-23 08:34:09 51°18.256 2°52.739 50.9 12.5 48 10.2
2006-11-23 08:34:14 51°18.269 2°52.76 54.4 13.1 49 10.1
2006-11-23 08:34:19 51°18.283 2°52.78 50.4 13.6 41 10.1
2006-11-23 08:34:23 51°18.294 2°52.796 47.5 13.1 42 10.3
2006-11-23 08:34:29 51°18.309 2°52.818 47.1 12.7 43 10.3
2006-11-23 08:34:34 51°18.322 2°52.838 47.5 12.7 42 10.3
2006-11-23 08:34:39 51°18.335 2°52.858 49.4 13.1 45 10.3
2006-11-23 08:34:43 51°18.347 2°52.872 46.9 12.9 40 10.3
2006-11-23 08:34:49 51°18.361 2°52.897 50.6 12.9 48 10.3
2006-11-23 08:34:54 51°18.374 2°52.917 48.1 12.9 40 10.3
2006-11-23 08:34:59 51°18.388 2°52.935 49.3 13 47 10.3
2006-11-23 08:35:04 51°18.403 2°52.953 45.7 13.3 35 10.1
2006-11-23 08:35:09 51°18.418 2°52.968 41.4 13 34 10.3
2006-11-23 08:35:14 51°18.431 2°52.988 41.8 12.9 40 10.4
2006-11-23 08:35:19 51°18.446 2°53.003 43.1 12.9 36 10.5
2006-11-23 08:35:23 51°18.456 2°53.021 44 13.2 43 10.4
2006-11-23 08:35:29 51°18.474 2°53.04 45.3 13.1 35 10.6
2006-11-23 08:35:34 51°18.486 2°53.062 46.1 13 46 10.5
2006-11-23 08:35:39 51°18.501 2°53.079 46.7 13.1 36 10.5
2006-11-23 08:35:44 51°18.514 2°53.098 45.8 13.1 42 10.5
2006-11-23 08:35:49 51°18.529 2°53.116 46.1 13 39 10.5
2006-11-23 08:35:54 51°18.544 2°53.132 43.8 13.2 36 10.5
2006-11-23 08:35:59 51°18.558 2°53.15 41.9 13 36 10.6
2006-11-23 08:36:04 51°18.571 2°53.168 44 12.9 40 10.6
2006-11-23 08:36:09 51°18.585 2°53.187 45.7 13.1 42 10.6
2006-11-23 08:36:14 51°18.597 2°53.207 45.9 12.6 43 10.7
2006-11-23 08:36:19 51°18.61 2°53.228 51 13.3 49 10.6
2006-11-23 08:36:24 51°18.625 2°53.242 44.8 12.8 30 10.7
2006-11-23 08:36:29 51°18.636 2°53.265 45.5 12.7 49 10.6
2006-11-23 08:36:34 51°18.652 2°53.279 47.1 13 34 10.6
2006-11-23 08:36:39 51°18.664 2°53.3 44.8 12.9 43 10.6
2006-11-23 08:36:43 51°18.676 2°53.313 45.3 12.9 36 10.7
2006-11-23 08:36:49 51°18.694 2°53.333 41.7 12.7 36 10.7
2006-11-23 08:36:54 51°18.707 2°53.351 44.7 12.7 42 10.7
2006-11-23 08:36:59 51°18.722 2°53.366 42.8 12.8 33 10.7
2006-11-23 08:37:04 51°18.735 2°53.385 42.9 12.8 41 10.9
2006-11-23 08:37:09 51°18.75 2°53.399 42.1 12.6 32 10.9
2006-11-23 08:37:14 51°18.762 2°53.419 41.9 12.5 42 10.9
2006-11-23 08:37:19 51°18.777 2°53.434 44.9 12.4 36 10.9
2006-11-23 08:37:23 51°18.786 2°53.45 45.5 12.5 44 11
2006-11-23 08:37:29 51°18.803 2°53.471 46.9 12.6 38 10.9
2006-11-23 08:37:34 51°18.817 2°53.488 45.5 12.9 38 10.9
2006-11-23 08:37:39 51°18.832 2°53.504 42.6 12.8 35 10.9
2006-11-23 08:37:43 51°18.843 2°53.516 40.3 12.5 33 11
2006-11-23 08:37:49 51°18.861 2°53.536 41.8 12.7 38 10.9
2006-11-23 08:37:54 51°18.876 2°53.551 38.9 12.8 32 10.9
2006-11-23 08:37:59 51°18.89 2°53.569 40.9 13 40 10.9
2006-11-23 08:38:04 51°18.905 2°53.584 40.7 12.8 31 10.9
2006-11-23 08:38:09 51°18.918 2°53.602 43.2 12.7 42 11
2006-11-23 08:38:14 51°18.933 2°53.619 43.2 12.8 33 11
2006-11-23 08:38:19 51°18.947 2°53.637 43.8 13 41 11
2006-11-23 08:38:24 51°18.962 2°53.652 42.7 12.9 32 11.1
2006-11-23 08:38:29 51°18.975 2°53.671 42.3 13 41 11.2
2006-11-23 08:38:34 51°18.99 2°53.685 41.6 12.7 31 11.2
2006-11-23 08:38:39 51°19.004 2°53.704 41.8 12.8 40 11.2
2006-11-23 08:38:44 51°19.019 2°53.719 42.9 13 34 11.3
2006-11-23 08:38:49 51°19.032 2°53.739 42.1 12.9 40 11.2
2006-11-23 08:38:54 51°19.047 2°53.754 45.4 12.8 36 11.2
2006-11-23 08:38:59 51°19.061 2°53.773 42.8 12.7 38 11.2
2006-11-23 08:39:04 51°19.075 2°53.789 43.5 12.6 37 11.3
2006-11-23 08:39:09 51°19.09 2°53.805 41.6 12.7 34 11.2
2006-11-23 08:39:14 51°19.104 2°53.821 40.9 12.8 35 11.2
2006-11-23 08:39:19 51°19.119 2°53.838 41.7 13.2 37 11.3
2006-11-23 08:39:23 51°19.131 2°53.851 39.4 12.8 34 11.3
2006-11-23 08:39:29 51°19.148 2°53.871 44 13 39 11.4
2006-11-23 08:39:34 51°19.163 2°53.886 39.1 12.9 28 11.2
2006-11-23 08:39:39 51°19.178 2°53.903 41.5 12.9 40 11.3
2006-11-23 08:39:43 51°19.19 2°53.915 39.9 13.1 30 11.1
2006-11-23 08:39:49 51°19.209 2°53.934 40.6 13.1 35 11.2
2006-11-23 08:39:54 51°19.224 2°53.952 39.6 13.3 33 11.2
2006-11-23 08:39:59 51°19.239 2°53.965 38.4 12.8 30 11.3
2006-11-23 08:40:04 51°19.252 2°53.984 41.9 12.9 40 11.3
2006-11-23 08:40:09 51°19.268 2°53.999 40.9 13 29 11.3
2006-11-23 08:40:14 51°19.281 2°54.018 44 13 44 11.4
2006-11-23 08:40:19 51°19.295 2°54.037 44 12.9 37 11.2
2006-11-23 08:40:23 51°19.306 2°54.05 46.7 12.7 40 11.5
2006-11-23 08:40:29 51°19.322 2°54.074 44.9 13 41 11.3
2006-11-23 08:40:34 51°19.338 2°54.087 43.6 12.8 34 11.4
2006-11-23 08:40:39 51°19.35 2°54.109 43.1 12.7 43 11.4
2006-11-23 08:40:44 51°19.365 2°54.125 46.9 12.9 37 11.4
2006-11-23 08:40:49 51°19.378 2°54.144 44.7 13.2 41 11.5
2006-11-23 08:40:54 51°19.392 2°54.162 45.4 13 39 11.4
2006-11-23 08:40:59 51°19.406 2°54.182 46.3 13.3 42 11.5
2006-11-23 08:41:04 51°19.419 2°54.2 45.5 12.8 40 11.7
2006-11-23 08:41:09 51°19.431 2°54.222 49.3 12.8 49 11.6
2006-11-23 08:41:14 51°19.446 2°54.24 50.3 13.5 40 11.5
2006-11-23 08:41:19 51°19.46 2°54.259 44.5 13.1 38 11.6
2006-11-23 08:41:24 51°19.474 2°54.277 45.7 12.8 41 11.6
2006-11-23 08:41:29 51°19.488 2°54.294 44.7 12.9 37 11.6
2006-11-23 08:41:34 51°19.502 2°54.313 44.5 13 40 11.6
2006-11-23 08:41:39 51°19.516 2°54.33 44 13 36 11.6
2006-11-23 08:41:44 51°19.53 2°54.349 45.5 12.9 42 11.7
2006-11-23 08:41:49 51°19.543 2°54.369 46.4 13.1 41 11.6
2006-11-23 08:41:54 51°19.557 2°54.387 47.1 13 40 11.7
2006-11-23 08:41:59 51°19.57 2°54.407 47.3 12.8 42 11.8
2006-11-23 08:42:03 51°19.581 2°54.422 47.4 13.1 41 11.8
2006-11-23 08:42:09 51°19.597 2°54.443 44.3 12.6 38 11.7
2006-11-23 08:42:14 51°19.61 2°54.461 47.6 12.7 44 11.7
2006-11-23 08:42:19 51°19.625 2°54.478 44.9 12.9 35 11.9
2006-11-23 08:42:24 51°19.638 2°54.497 44.9 12.8 42 11.7
2006-11-23 08:42:29 51°19.653 2°54.513 44.2 12.7 35 11.8
2006-11-23 08:42:34 51°19.665 2°54.533 44.6 12.7 42 11.8
2006-11-23 08:42:39 51°19.68 2°54.55 47.1 13.1 39 11.8
2006-11-23 08:42:44 51°19.694 2°54.569 44.2 13.1 38 11.8
2006-11-23 08:42:49 51°19.707 2°54.588 45.5 12.9 42 11.9
2006-11-23 08:42:54 51°19.72 2°54.607 46.4 12.9 41 11.9
2006-11-23 08:42:59 51°19.734 2°54.626 47.7 12.9 43 12
2006-11-23 08:43:04 51°19.747 2°54.646 48.7 12.9 43 12.1
2006-11-23 08:43:09 51°19.76 2°54.665 48.9 13 43 12.1
2006-11-23 08:43:14 51°19.773 2°54.685 48.8 13.2 43 12.1
2006-11-23 08:43:19 51°19.787 2°54.704 47.1 13 40 12.1
2006-11-23 08:43:23 51°19.798 2°54.718 47.1 12.8 40 12.2
2006-11-23 08:43:29 51°19.815 2°54.74 45 13.1 39 12
2006-11-23 08:43:34 51°19.83 2°54.755 42.9 12.7 35 12.1
2006-11-23 08:43:39 51°19.843 2°54.775 43.1 12.9 42 12.1
2006-11-23 08:43:43 51°19.856 2°54.786 42.8 12.8 32 12.1
2006-11-23 08:43:49 51°19.871 2°54.809 42.5 12.6 42 12.1
2006-11-23 08:43:54 51°19.886 2°54.824 44.6 12.6 35 12.1
2006-11-23 08:43:59 51°19.899 2°54.845 43.2 13 42 12.1
2006-11-23 08:44:03 51°19.911 2°54.856 44.4 12.6 33 12.2
2006-11-23 08:44:09 51°19.926 2°54.881 44.3 12.8 44 12.1
2006-11-23 08:44:14 51°19.941 2°54.894 45.8 12.5 34 12.3
2006-11-23 08:44:19 51°19.953 2°54.917 44.2 12.8 44 12.1
2006-11-23 08:44:24 51°19.969 2°54.929 43.9 12.8 32 12
2006-11-23 08:44:29 51°19.981 2°54.949 39.9 12.4 39 12
2006-11-23 08:44:34 51°19.995 2°54.965 46.5 12.5 42 12.2
2006-11-23 08:44:39 51°20.008 2°54.982 42.5 12.4 33 12.2
2006-11-23 08:44:44 51°20.021 2°55.001 46.9 12.5 50 12.3
2006-11-23 08:44:49 51°20.035 2°55.017 45.8 12.6 33 12.3
2006-11-23 08:44:54 51°20.047 2°55.036 45.6 12.6 45 12.5
2006-11-23 08:44:59 51°20.061 2°55.052 44.8 12.3 34 12.6
2006-11-23 08:45:04 51°20.074 2°55.072 46.5 12.6 47 12.5
2006-11-23 08:45:09 51°20.089 2°55.088 45.9 12.8 33 12.5
2006-11-23 08:45:14 51°20.101 2°55.108 45.9 12.9 46 12.5
2006-11-23 08:45:19 51°20.117 2°55.122 44.8 12.8 31 12.5
2006-11-23 08:45:24 51°20.129 2°55.142 43.3 12.5 42 12.5
2006-11-23 08:45:29 51°20.143 2°55.158 45.3 12.8 38 12.4
2006-11-23 08:45:34 51°20.157 2°55.176 43.5 12.9 38 12.5
2006-11-23 08:45:39 51°20.171 2°55.195 45.5 12.7 42 12.5
2006-11-23 08:45:44 51°20.184 2°55.213 45.9 12.9 39 12.5
2006-11-23 08:45:49 51°20.198 2°55.231 45.4 12.8 39 12.5
2006-11-23 08:45:53 51°20.208 2°55.247 47.5 12.7 44 12.5
2006-11-23 08:45:59 51°20.224 2°55.27 48.2 13 43 12.5
2006-11-23 08:46:04 51°20.237 2°55.289 47.6 12.8 41 12.6
2006-11-23 08:46:09 51°20.25 2°55.31 49.6 13.1 46 12.5
2006-11-23 08:46:14 51°20.265 2°55.325 47.1 12.9 34 12.5
2006-11-23 08:46:19 51°20.277 2°55.346 45 12.8 45 12.4
2006-11-23 08:46:24 51°20.293 2°55.361 44.9 12.9 34 12.5
2006-11-23 08:46:29 51°20.306 2°55.381 43.9 12.8 41 12.5
2006-11-23 08:46:34 51°20.32 2°55.397 45.9 12.8 39 12.6
2006-11-23 08:46:39 51°20.333 2°55.416 44.4 12.9 39 12.6
2006-11-23 08:46:44 51°20.347 2°55.434 45.8 12.8 42 12.6
2006-11-23 08:46:49 51°20.361 2°55.452 44.8 12.8 38 12.6
2006-11-23 08:46:54 51°20.375 2°55.471 45.7 13 41 12.6
2006-11-23 08:46:59 51°20.389 2°55.488 44.5 12.9 37 12.6
2006-11-23 08:47:04 51°20.402 2°55.507 44.9 12.6 42 12.7
2006-11-23 08:47:09 51°20.415 2°55.527 47.5 13.1 43 12.6
2006-11-23 08:47:14 51°20.43 2°55.543 45.9 12.9 37 12.7
2006-11-23 08:47:19 51°20.442 2°55.565 46.1 12.9 45 12.6
2006-11-23 08:47:24 51°20.457 2°55.582 47.7 13 41 12.6
2006-11-23 08:47:29 51°20.47 2°55.601 45.2 13 40 12.7
2006-11-23 08:47:34 51°20.483 2°55.622 48.9 13.2 46 12.6
2006-11-23 08:47:39 51°20.497 2°55.64 47.6 13.2 39 12.7
2006-11-23 08:47:43 51°20.507 2°55.656 48.5 12.7 45 12.8
2006-11-23 08:47:49 51°20.522 2°55.681 49.8 13.2 44 12.7
2006-11-23 08:47:54 51°20.537 2°55.698 46.8 13.2 38 12.8
2006-11-23 08:47:59 51°20.55 2°55.716 45 12.8 39 12.8
2006-11-23 08:48:03 51°20.561 2°55.732 45.5 12.9 41 12.7
2006-11-23 08:48:09 51°20.579 2°55.752 44.2 13 35 12.8
2006-11-23 08:48:14 51°20.592 2°55.772 44.2 12.9 43 12.9
2006-11-23 08:48:19 51°20.605 2°55.79 46.7 12.9 40 12.8
2006-11-23 08:48:24 51°20.618 2°55.81 48.1 13 44 13
2006-11-23 08:48:29 51°20.631 2°55.829 47.7 12.7 41 12.9
2006-11-23 08:48:34 51°20.644 2°55.849 48.1 13.2 45 12.9
2006-11-23 08:48:39 51°20.66 2°55.864 43.8 12.8 32 12.9
2006-11-23 08:48:43 51°20.668 2°55.883 46.2 12.8 50 12.9
2006-11-23 08:48:49 51°20.686 2°55.903 47.5 13 36 12.8
2006-11-23 08:48:53 51°20.695 2°55.92 46.8 12.5 46 13
2006-11-23 08:48:59 51°20.709 2°55.944 51.1 12.5 47 12.9
2006-11-23 08:49:04 51°20.724 2°55.961 49.4 12.8 39 13
2006-11-23 08:49:09 51°20.736 2°55.981 46.7 12.8 44 13
2006-11-23 08:49:14 51°20.751 2°55.997 46 12.6 38 13.1
2006-11-23 08:49:19 51°20.763 2°56.018 45.7 12.6 44 13
2006-11-23 08:49:24 51°20.776 2°56.036 48.9 12.8 44 13
2006-11-23 08:49:29 51°20.788 2°56.056 47.1 12.6 41 13.1
2006-11-23 08:49:34 51°20.801 2°56.076 50 12.6 47 13.1
2006-11-23 08:49:39 51°20.813 2°56.096 50.4 13 45 13.1
2006-11-23 08:49:43 51°20.824 2°56.111 48.6 12.8 42 13.1
2006-11-23 08:49:49 51°20.839 2°56.136 50.8 13 48 13.2
2006-11-23 08:49:54 51°20.852 2°56.155 48.4 12.9 39 13.1
2006-11-23 08:49:59 51°20.865 2°56.176 49.6 13.2 47 13.1
2006-11-23 08:50:03 51°20.877 2°56.189 47.1 13 36 13.2
2006-11-23 08:50:09 51°20.892 2°56.214 46.8 13 45 13.1
2006-11-23 08:50:14 51°20.907 2°56.231 47.1 13.2 38 13.1
2006-11-23 08:50:19 51°20.92 2°56.25 44.8 12.9 40 13.1
2006-11-23 08:50:24 51°20.933 2°56.27 47.1 13.1 44 13.1
2006-11-23 08:50:29 51°20.947 2°56.287 46.4 12.9 38 13.2
2006-11-23 08:50:34 51°20.959 2°56.309 47.8 12.9 48 13.2
2006-11-23 08:50:39 51°20.974 2°56.326 48.1 12.9 38 13.2
2006-11-23 08:50:44 51°20.986 2°56.346 45.9 12.7 44 13.2
2006-11-23 08:50:49 51°20.999 2°56.363 47.8 12.5 41 13.3
2006-11-23 08:50:54 51°21.011 2°56.385 48.6 12.6 47 13.3
2006-11-23 08:50:59 51°21.024 2°56.403 50.1 12.5 44 13.3
2006-11-23 08:51:04 51°21.035 2°56.424 49.9 12.6 46 13.3
2006-11-23 08:51:09 51°21.048 2°56.442 49.8 12.5 42 13.3
2006-11-23 08:51:14 51°21.06 2°56.463 49.6 12.7 47 13.3
2006-11-23 08:51:19 51°21.074 2°56.482 50.4 12.6 44 13.4
2006-11-23 08:51:24 51°21.084 2°56.505 50.2 12.6 49 13.3
2006-11-23 08:51:29 51°21.097 2°56.524 54.2 12.8 48 13.3
2006-11-23 08:51:34 51°21.107 2°56.547 52.4 12.9 52 13.3
2006-11-23 08:51:39 51°21.12 2°56.567 54.5 12.9 49 13.4
2006-11-23 08:51:43 51°21.13 2°56.583 51.5 12.7 45 13.5
2006-11-23 08:51:49 51°21.143 2°56.61 54 12.8 52 13.4
2006-11-23 08:51:54 51°21.156 2°56.629 52.4 12.8 43 13.5
2006-11-23 08:51:59 51°21.167 2°56.652 52.9 12.9 53 13.4
2006-11-23 08:52:03 51°21.177 2°56.667 52.7 12.7 42 13.5
2006-11-23 08:52:09 51°21.19 2°56.694 51.6 12.5 53 13.5
2006-11-23 08:52:14 51°21.203 2°56.714 54.8 13.2 46 13.3
2006-11-23 08:52:19 51°21.216 2°56.735 50.1 13 45 13.4
2006-11-23 08:52:24 51°21.226 2°56.758 53.2 13 53 13.4
2006-11-23 08:52:29 51°21.239 2°56.78 55 13.3 50 13.5
2006-11-23 08:52:34 51°21.247 2°56.804 56.7 12.7 56 13.6
2006-11-23 08:52:39 51°21.256 2°56.829 62 12.6 61 13.6
2006-11-23 08:52:44 51°21.265 2°56.853 63.8 13 59 13.5
2006-11-23 08:52:49 51°21.275 2°56.876 62 12.4 57 13.7
2006-11-23 08:52:54 51°21.283 2°56.899 62.4 12.2 60 13.7
2006-11-23 08:52:58 51°21.291 2°56.918 62.6 12.9 56 13.5
2006-11-23 08:53:05 51°21.306 2°56.951 59 12.8 53 13.6
2006-11-23 08:53:09 51°21.313 2°56.97 58.9 12.4 57 13.5
2006-11-23 08:53:14 51°21.322 2°56.994 62.6 12.6 59 13.6
2006-11-23 08:53:19 51°21.332 2°57.018 61.6 12.8 56 13.6
2006-11-23 08:53:24 51°21.341 2°57.042 62.1 13 59 13.4
2006-11-23 08:53:29 51°21.351 2°57.067 61.8 13.2 57 13.3
2006-11-23 08:53:34 51°21.361 2°57.091 60.8 13.1 56 13.3
2006-11-23 08:53:39 51°21.371 2°57.116 61.2 13.2 58 13.3
2006-11-23 08:53:44 51°21.382 2°57.139 59.6 13 53 13.4
2006-11-23 08:53:49 51°21.39 2°57.164 60.6 12.8 59 13.5
2006-11-23 08:53:54 51°21.4 2°57.188 62.5 13.2 57 13.4
2006-11-23 08:53:59 51°21.41 2°57.211 60.2 12.6 54 13.4
2006-11-23 08:54:04 51°21.418 2°57.235 62.3 12.2 61 13.4
2006-11-23 08:54:09 51°21.429 2°57.259 62.9 13 57 13.3
2006-11-23 08:54:14 51°21.438 2°57.283 59.9 13.1 55 13.3
2006-11-23 08:54:19 51°21.447 2°57.307 60.9 12.6 59 13.3
2006-11-23 08:54:24 51°21.455 2°57.332 63.4 12.5 61 13.4
2006-11-23 08:54:29 51°21.464 2°57.356 65.4 12.7 62 13.5
2006-11-23 08:54:34 51°21.472 2°57.381 65.3 12.5 61 13.4
2006-11-23 08:54:39 51°21.48 2°57.406 66.8 12.8 64 13.5
2006-11-23 08:54:44 51°21.489 2°57.43 65.3 12.9 59 13.5
2006-11-23 08:54:49 51°21.498 2°57.455 63.9 12.7 60 13.2
2006-11-23 08:54:54 51°21.507 2°57.479 63.6 12.6 60 13.4
2006-11-23 08:54:59 51°21.515 2°57.504 63.3 12.7 60 13.4
2006-11-23 08:55:03 51°21.523 2°57.524 64.5 13.2 60 13.2
2006-11-23 08:55:09 51°21.535 2°57.553 61.5 13.4 55 13.3
2006-11-23 08:55:14 51°21.545 2°57.577 60.4 12.8 57 13.3
2006-11-23 08:55:19 51°21.553 2°57.601 62.1 12.4 60 13.5
2006-11-23 08:55:24 51°21.561 2°57.627 65 13.1 63 13.2
2006-11-23 08:55:29 51°21.57 2°57.654 65.4 13.6 62 13.1
2006-11-23 08:55:34 51°21.578 2°57.678 65.6 12.8 63 13.2
2006-11-23 08:55:39 51°21.584 2°57.704 68.2 12.2 67 13.1
2006-11-23 08:55:44 51°21.591 2°57.73 70.7 12.8 68 13.1
2006-11-23 08:55:49 51°21.598 2°57.757 70.7 13.2 67 13.1
2006-11-23 08:55:54 51°21.606 2°57.783 69.9 12.8 65 13.3
2006-11-23 08:55:59 51°21.612 2°57.808 70.6 12.4 68 13.2
2006-11-23 08:56:04 51°21.62 2°57.833 70.2 12.5 65 13.2
2006-11-23 08:56:09 51°21.629 2°57.858 67 12.9 61 13.2
2006-11-23 08:56:14 51°21.639 2°57.881 62 12.7 55 13.2
2006-11-23 08:56:19 51°21.648 2°57.904 61 12.6 58 13.2
2006-11-23 08:56:24 51°21.658 2°57.928 60.2 12.9 56 13.1
2006-11-23 08:56:29 51°21.669 2°57.95 58.7 12.6 53 13.3
2006-11-23 08:56:34 51°21.678 2°57.974 60.1 12.5 59 13.2
2006-11-23 08:56:39 51°21.688 2°57.998 61.7 12.7 57 13.3
2006-11-23 08:56:44 51°21.697 2°58.021 60.3 12.5 57 13.3
2006-11-23 08:56:49 51°21.706 2°58.044 61.5 12.2 58 13.3
2006-11-23 08:56:54 51°21.715 2°58.065 61.3 11.9 56 13
2006-11-23 08:56:59 51°21.724 2°58.086 60.2 11.3 57 12.9
2006-11-23 08:57:04 51°21.731 2°58.103 58.5 10.3 53 13.1
2006-11-23 08:57:09 51°21.738 2°58.122 61.4 9.6 61 13.1
2006-11-23 08:57:14 51°21.745 2°58.137 60.3 8.9 54 13.3
2006-11-23 08:57:19 51°21.75 2°58.153 60.6 8.5 61 13.2
2006-11-23 08:57:24 51°21.757 2°58.167 61.7 7.9 55 13.3
2006-11-23 08:57:29 51°21.762 2°58.181 60.6 7.3 60 13.2
2006-11-23 08:57:34 51°21.767 2°58.193 62.4 6.8 57 13.3
2006-11-23 08:57:39 51°21.771 2°58.205 60.9 6.1 59 13.3
2006-11-23 08:57:44 51°21.775 2°58.213 61.4 5.4 54 13.1
2006-11-23 08:57:49 51°21.779 2°58.221 56.8 4.6 52 13.1
2006-11-23 08:57:54 51°21.783 2°58.227 53.1 3.8 46 13.2
2006-11-23 08:57:59 51°21.786 2°58.231 47.9 3.2 42 13.3
2006-11-23 08:58:04 51°21.789 2°58.234 43.1 2.7 32 13.3
2006-11-23 08:58:09 51°21.792 2°58.237 42.3 2.2 37 13.4
2006-11-23 08:58:14 51°21.794 2°58.239 43.7 1.9 36 13.3
2006-11-23 08:58:19 51°21.796 2°58.243 46.2 2 41 13.3
2006-11-23 08:58:24 51°21.798 2°58.246 48.3 2.4 39 13.4
2006-11-23 08:58:29 51°21.801 2°58.249 46.7 2.7 36 13.3
2006-11-23 08:58:34 51°21.806 2°58.253 40.5 3.2 29 13.4
2006-11-23 08:58:39 51°21.811 2°58.255 33 3.7 17 13.5
2006-11-23 08:58:44 51°21.817 2°58.256 24.4 4.1 8 13.3
2006-11-23 08:58:49 51°21.824 2°58.255 15.2 4.6 356 13.3
2006-11-23 08:58:54 51°21.831 2°58.251 5 5 343 13.4
2006-11-23 08:58:59 51°21.837 2°58.247 354.9 5.3 339 13.2
2006-11-23 08:59:04 51°21.844 2°58.24 345.4 5.6 327 13.2
2006-11-23 08:59:09 51°21.85 2°58.231 335.5 5.8 318 13.1
2006-11-23 08:59:14 51°21.855 2°58.221 325.2 6 308 13.1
2006-11-23 08:59:19 51°21.859 2°58.208 314.6 6.2 299 13.2
2006-11-23 08:59:24 51°21.862 2°58.195 305.1 6.2 291 13.4
2006-11-23 08:59:29 51°21.863 2°58.182 295.4 5.9 284 13.6
2006-11-23 08:59:34 51°21.864 2°58.17 288 5.6 278 13.5
2006-11-23 08:59:39 51°21.864 2°58.158 282.2 5.4 272 13.6
2006-11-23 08:59:44 51°21.863 2°58.147 275.7 5.3 267 13.9
2006-11-23 08:59:49 51°21.862 2°58.136 269.6 5.3 261 13.8
2006-11-23 08:59:54 51°21.86 2°58.125 263 5.1 256 13.8
2006-11-23 08:59:59 51°21.858 2°58.115 256.2 4.8 249 14
2006-11-23 09:00:04 51°21.855 2°58.106 251.1 4.4 248 14
2006-11-23 09:00:09 51°21.852 2°58.098 246.7 4.1 242 14.1
2006-11-23 09:00:14 51°21.849 2°58.091 242.4 3.8 237 13.9
2006-11-23 09:00:19 51°21.847 2°58.085 239.4 3.5 238 13.7
2006-11-23 09:00:24 51°21.845 2°58.079 237.9 3.3 236 13.6
2006-11-23 09:00:29 51°21.842 2°58.073 238.1 3.2 238 13.8
2006-11-23 09:00:34 51°21.84 2°58.067 240.1 3.2 240 13.9
2006-11-23 09:00:39 51°21.838 2°58.061 242.7 3.3 241 13.8
2006-11-23 09:00:43 51°21.836 2°58.055 244.9 3.3 242 13.9
2006-11-23 09:00:49 51°21.834 2°58.047 246.9 3.4 245 14
2006-11-23 09:00:54 51°21.832 2°58.041 248.2 3.3 246 14
2006-11-23 09:00:59 51°21.83 2°58.034 248.6 3.3 246 13.9
2006-11-23 09:01:04 51°21.828 2°58.027 247.7 3.4 245 13.8
2006-11-23 09:01:09 51°21.826 2°58.021 246.2 3.4 245 13.8
2006-11-23 09:01:14 51°21.824 2°58.014 244.2 3.4 241 13.9
2006-11-23 09:01:19 51°21.822 2°58.008 242.3 3.4 242 13.8
2006-11-23 09:01:24 51°21.819 2°58.001 239.1 3.4 237 14
2006-11-23 09:01:29 51°21.816 2°57.995 235.2 3.5 236 13.9
2006-11-23 09:01:34 51°21.813 2°57.989 232.2 3.4 230 13.7
2006-11-23 09:01:39 51°21.81 2°57.984 227.9 3.4 229 13.9
2006-11-23 09:01:44 51°21.806 2°57.979 224.2 3.4 219 13.9
2006-11-23 09:01:49 51°21.802 2°57.974 219.1 3.4 222 13.9
2006-11-23 09:01:54 51°21.799 2°57.97 214.3 3.4 213 13.6
2006-11-23 09:01:59 51°21.794 2°57.966 211.2 3.5 216 13.8
2006-11-23 09:02:04 51°21.79 2°57.962 206.4 3.5 207 13.5
2006-11-23 09:02:09 51°21.786 2°57.959 202.4 3.5 206 13.5
2006-11-23 09:02:14 51°21.781 2°57.956 198.7 3.6 202 13.6
2006-11-23 09:02:19 51°21.776 2°57.955 194.8 3.6 192 13.8
2006-11-23 09:02:24 51°21.771 2°57.954 190.7 3.6 188 13.7
2006-11-23 09:02:29 51°21.765 2°57.952 187.4 3.8 192 13.5
2006-11-23 09:02:34 51°21.761 2°57.95 184.5 3.7 187 13.5
2006-11-23 09:02:39 51°21.755 2°57.949 183 3.8 185 13.6
2006-11-23 09:02:44 51°21.75 2°57.949 181.6 3.9 186 13.6
2006-11-23 09:02:49 51°21.744 2°57.949 180.2 3.9 176 13.9
2006-11-23 09:02:54 51°21.739 2°57.949 178.2 4 179 13.5
2006-11-23 09:02:59 51°21.734 2°57.95 173.7 4.1 175 13.4
2006-11-23 09:03:04 51°21.728 2°57.953 167.5 4.1 167 13.3
2006-11-23 09:03:09 51°21.723 2°57.957 160 4.1 158 13.2
2006-11-23 09:03:14 51°21.718 2°57.962 151.9 4.1 146 13.3
2006-11-23 09:03:19 51°21.714 2°57.968 141.7 4.1 143 13.3
2006-11-23 09:03:24 51°21.711 2°57.975 132.7 4.1 130 13.4
2006-11-23 09:03:29 51°21.707 2°57.983 126.2 4.2 126 13.7
2006-11-23 09:03:34 51°21.705 2°57.992 117.2 4.2 112 13.7
2006-11-23 09:03:39 51°21.704 2°58.001 106.7 4.3 108 13.8
2006-11-23 09:03:44 51°21.704 2°58.01 96.9 4.1 92 13.9
2006-11-23 09:03:49 51°21.705 2°58.02 88.7 4.5 89 13.8
2006-11-23 09:03:54 51°21.707 2°58.029 81.2 4.2 71 13.8
2006-11-23 09:03:59 51°21.709 2°58.039 71.8 4.7 74 13.6
2006-11-23 09:04:04 51°21.713 2°58.047 63.7 4.6 51 13.4
2006-11-23 09:04:09 51°21.717 2°58.056 60.7 4.7 64 13.4
2006-11-23 09:04:14 51°21.72 2°58.064 55.8 4.6 51 13.5
2006-11-23 09:04:19 51°21.724 2°58.072 56.3 4.7 56 13.4
2006-11-23 09:04:24 51°21.728 2°58.08 56.1 4.6 53 13.5
2006-11-23 09:04:29 51°21.732 2°58.089 57.1 4.4 57 13.6
2006-11-23 09:04:34 51°21.735 2°58.096 59.4 4.2 54 13.5
2006-11-23 09:04:39 51°21.738 2°58.104 61.4 4 60 13.5
2006-11-23 09:04:44 51°21.74 2°58.111 63.8 3.8 61 13.5
2006-11-23 09:04:49 51°21.742 2°58.118 66 3.5 64 13.4
2006-11-23 09:04:54 51°21.744 2°58.124 68.2 2.9 67 13.5
2006-11-23 09:04:59 51°21.744 2°58.129 70.3 2.5 73 13.4
2006-11-23 09:05:04 51°21.745 2°58.132 73.3 1.8 69 13.3
2006-11-23 09:05:09 51°21.745 2°58.134 77.9 1.1 85 13.4
2006-11-23 09:05:14 51°21.746 2°58.135 80.5 0.5 76 13.4
2006-11-23 09:05:19 51°21.746 2°58.136 81.9 0.3 92 13.4
2006-11-23 09:05:23 51°21.745 2°58.136 83.6 0.2 120 13.4
2006-11-23 09:05:29 51°21.745 2°58.136 85.2 0.1 81 13.4
2006-11-23 09:05:34 51°21.745 2°58.137 88.5 0.2 134 13.4
2006-11-23 09:05:39 51°21.745 2°58.137 90.5 0.2 110 13.3
2006-11-23 09:05:44 51°21.745 2°58.137 92.1 0.2 117 13.3
2006-11-23 09:05:49 51°21.745 2°58.138 93.8 0.2 139 13.3
2006-11-23 09:05:54 51°21.745 2°58.138 95.5 0.1 128 13.3
2006-11-23 09:05:59 51°21.745 2°58.138 97.6 0.3 148 13.3
2006-11-23 09:06:04 51°21.745 2°58.139 99 0.1 120 13.3
2006-11-23 09:06:09 51°21.745 2°58.139 100.9 0.3 165 13.4
2006-11-23 09:06:14 51°21.744 2°58.139 101.6 0.2 172 13.4
2006-11-23 09:06:19 51°21.744 2°58.139 103.6 0.2 165 13.3
2006-11-23 09:06:24 51°21.744 2°58.139 105.1 0.2 170 13.4
2006-11-23 09:06:29 51°21.744 2°58.139 106.2 0.2 175 13.3
2006-11-23 09:06:34 51°21.743 2°58.14 107.2 0.3 152 13.2
2006-11-23 09:06:39 51°21.743 2°58.14 108.3 0.3 135 13.1
2006-11-23 09:06:44 51°21.743 2°58.14 109.3 0.3 165 13.2
2006-11-23 09:06:49 51°21.743 2°58.14 110.5 0.2 183 13.2
2006-11-23 09:06:54 51°21.742 2°58.141 112.1 0.3 173 13.2
2006-11-23 09:06:59 51°21.742 2°58.141 113.2 0.3 149 13.3
2006-11-23 09:07:04 51°21.741 2°58.142 114.4 0.3 156 13.3
2006-11-23 09:07:09 51°21.741 2°58.142 115.8 0.3 190 13.5
2006-11-23 09:07:14 51°21.741 2°58.142 116.9 0.3 173 13.5
2006-11-23 09:07:19 51°21.74 2°58.142 117.8 0.3 157 13.3
2006-11-23 09:07:23 51°21.74 2°58.142 119.1 0.4 153 13.3
2006-11-23 09:07:29 51°21.739 2°58.143 120.3 0.4 160 13.4
2006-11-23 09:07:34 51°21.739 2°58.143 121.5 0.5 167 13.4
2006-11-23 09:07:39 51°21.738 2°58.143 121.9 0.3 165 13.5
2006-11-23 09:07:44 51°21.737 2°58.144 123 0.5 166 13.3
2006-11-23 09:07:49 51°21.737 2°58.144 124.2 0.6 156 13.2
2006-11-23 09:07:54 51°21.736 2°58.144 124.8 0.6 162 13.1
2006-11-23 09:07:59 51°21.735 2°58.145 126 0.5 159 13.2
2006-11-23 09:08:03 51°21.735 2°58.145 127.4 0.5 171 13.4
2006-11-23 09:08:09 51°21.734 2°58.145 128 0.5 169 13.4
2006-11-23 09:08:14 51°21.733 2°58.145 128.5 0.4 166 13.5
2006-11-23 09:08:19 51°21.733 2°58.145 129.1 0.5 168 13.4
2006-11-23 09:08:24 51°21.732 2°58.145 129.3 0.4 167 13.4
2006-11-23 09:08:29 51°21.732 2°58.146 129.8 0.4 157 13.4
2006-11-23 09:08:34 51°21.731 2°58.146 129.8 0.5 174 13.3
2006-11-23 09:08:39 51°21.73 2°58.146 130.5 0.5 170 13.3
2006-11-23 09:08:44 51°21.73 2°58.146 130.8 0.3 154 13.2
2006-11-23 09:08:49 51°21.729 2°58.146 131.3 0.5 182 13.3
2006-11-23 09:08:54 51°21.729 2°58.146 131.9 0.2 144 13.4
2006-11-23 09:08:59 51°21.729 2°58.146 132.5 0.5 184 13.3
2006-11-23 09:09:04 51°21.728 2°58.147 132.5 0.3 153 13.2
2006-11-23 09:09:09 51°21.727 2°58.147 132.2 0.4 180 13.3
2006-11-23 09:09:14 51°21.727 2°58.147 132.9 0.2 144 13.4
2006-11-23 09:09:19 51°21.727 2°58.147 133 0.4 179 13.2
2006-11-23 09:09:24 51°21.726 2°58.147 132.6 0.3 168 13.3
2006-11-23 09:09:29 51°21.726 2°58.147 132.2 0.2 186 13.5
2006-11-23 09:09:34 51°21.726 2°58.147 132.8 0.1 99 13.4
2006-11-23 09:09:39 51°21.725 2°58.147 132.4 0.4 182 13.3
2006-11-23 09:09:44 51°21.725 2°58.147 131.8 0.4 168 13.2
2006-11-23 09:09:49 51°21.724 2°58.147 132.2 0.3 181 13.2
2006-11-23 09:09:54 51°21.724 2°58.148 132.4 0.3 178 13.3
2006-11-23 09:09:59 51°21.723 2°58.147 132.8 0.3 174 13.3
2006-11-23 09:10:04 51°21.723 2°58.147 132.8 0.3 197 13.3
2006-11-23 09:10:09 51°21.723 2°58.147 132.4 0.3 178 13.4
2006-11-23 09:10:14 51°21.723 2°58.147 132.3 0.2 171 13.3
2006-11-23 09:10:19 51°21.722 2°58.147 132.5 0.3 166 13.3
2006-11-23 09:10:24 51°21.722 2°58.147 132.2 0.2 186 13.3
2006-11-23 09:10:29 51°21.721 2°58.147 132 1 200 13.4
2006-11-23 09:10:34 51°21.721 2°58.147 132.6 0.3 203 13.3
2006-11-23 09:10:39 51°21.721 2°58.147 132.8 0.1 178 13.3
2006-11-23 09:10:44 51°21.721 2°58.147 132.8 0.3 202 13.3
2006-11-23 09:10:49 51°21.721 2°58.147 132.4 0.2 160 13.2
2006-11-23 09:10:54 51°21.721 2°58.147 132.5 0.3 171 13.2
2006-11-23 09:10:59 51°21.72 2°58.147 132.1 0.2 199 13.3
2006-11-23 09:11:04 51°21.72 2°58.147 133.6 0.1 145 13.2
2006-11-23 09:11:09 51°21.72 2°58.147 134.4 0.4 204 12.9
2006-11-23 09:11:14 51°21.719 2°58.146 134.4 0.2 180 13.1
2006-11-23 09:11:19 51°21.719 2°58.146 134.9 0.3 194 13.2
2006-11-23 09:11:24 51°21.719 2°58.146 135.5 0.3 178 13.2
2006-11-23 09:11:29 51°21.719 2°58.146 135.3 0.1 180 13.2
2006-11-23 09:11:34 51°21.718 2°58.146 135.8 0.2 207 13.2
2006-11-23 09:11:39 51°21.718 2°58.146 136.1 0.1 180 13.3
2006-11-23 09:11:44 51°21.718 2°58.146 135.7 0.2 211 13.4
2006-11-23 09:11:49 51°21.718 2°58.146 135.7 0.1 281 13.5
2006-11-23 09:11:54 51°21.718 2°58.146 135.7 0.1 351 13.6
2006-11-23 09:11:59 51°21.718 2°58.146 135.7 0.2 199 13.3
2006-11-23 09:12:04 51°21.717 2°58.146 135.1 0.4 198 13.1
2006-11-23 09:12:09 51°21.717 2°58.146 135 -999 132 13.2
2006-11-23 09:12:14 51°21.717 2°58.145 135.6 0.2 234 13.3
2006-11-23 09:12:19 51°21.717 2°58.145 135.6 0.1 240 13.4
2006-11-23 09:12:24 51°21.716 2°58.145 135.2 0.2 210 13.4
2006-11-23 09:12:29 51°21.716 2°58.144 134.6 0.2 216 13.5
2006-11-23 09:12:34 51°21.716 2°58.144 134.5 0.1 244 13.6
2006-11-23 09:12:39 51°21.716 2°58.144 134.5 0.2 213 13.5
2006-11-23 09:12:44 51°21.716 2°58.144 134 0.1 235 13.5
2006-11-23 09:12:49 51°21.715 2°58.143 133.5 0.2 235 13.5
2006-11-23 09:12:54 51°21.715 2°58.143 133.5 0.2 244 13.4
2006-11-23 09:12:59 51°21.716 2°58.143 132.9 0.2 274 13.5
2006-11-23 09:13:04 51°21.716 2°58.142 132.8 0.2 297 13.5
2006-11-23 09:13:09 51°21.715 2°58.142 132 0.2 215 13.3
2006-11-23 09:13:14 51°21.716 2°58.142 131.2 0.1 170 13.1
2006-11-23 09:13:19 51°21.715 2°58.142 130.1 0.2 219 13.1
2006-11-23 09:13:24 51°21.715 2°58.142 130.6 0.2 183 13.1
2006-11-23 09:13:29 51°21.715 2°58.142 131.3 0.1 315 13.2
2006-11-23 09:13:34 51°21.715 2°58.141 131.9 0.1 269 13.1
2006-11-23 09:13:39 51°21.715 2°58.141 131.3 0.2 230 13.1
2006-11-23 09:13:43 51°21.715 2°58.141 130.6 -999 271 13.3
2006-11-23 09:13:49 51°21.714 2°58.14 130.6 0.1 299 13.4
2006-11-23 09:13:54 51°21.714 2°58.14 130.6 0.2 11 13.5
2006-11-23 09:13:59 51°21.714 2°58.14 131 0.2 242 13.3
2006-11-23 09:14:04 51°21.714 2°58.14 130.8 0.1 225 13.3
2006-11-23 09:14:09 51°21.714 2°58.14 130.2 0.2 198 13.4
2006-11-23 09:14:14 51°21.714 2°58.14 130.1 0.1 116 13.5
2006-11-23 09:14:19 51°21.714 2°58.14 129.7 0.3 210 13.6
2006-11-23 09:14:24 51°21.713 2°58.14 129.2 0.1 309 13.8
2006-11-23 09:14:29 51°21.714 2°58.14 129.9 0.1 317 13.7
2006-11-23 09:14:34 51°21.714 2°58.139 129.7 0.1 220 13.5
2006-11-23 09:14:39 51°21.713 2°58.139 128.9 0.2 182 13.2
2006-11-23 09:14:44 51°21.713 2°58.139 128.4 0.3 202 13.1
2006-11-23 09:14:49 51°21.713 2°58.139 129 0.1 186 13.2
2006-11-23 09:14:55 51°21.712 2°58.139 129.2 0.2 197 13.4
2006-11-23 09:14:59 51°21.712 2°58.139 129.2 0.1 236 13.5
2006-11-23 09:15:04 51°21.712 2°58.138 129 0.3 224 13.6
2006-11-23 09:15:09 51°21.712 2°58.139 128.4 -999 279 13.7
2006-11-23 09:15:14 51°21.712 2°58.138 128.3 0.1 248 13.6
2006-11-23 09:15:19 51°21.711 2°58.138 128.3 0.3 210 13.4
2006-11-23 09:15:24 51°21.711 2°58.138 127.7 0.1 161 13.3
2006-11-23 09:15:29 51°21.711 2°58.138 127.4 0.1 193 13.4
2006-11-23 09:15:34 51°21.711 2°58.138 127.7 0.2 211 13.4
2006-11-23 09:15:39 51°21.711 2°58.137 128.1 0.1 218 13.2
2006-11-23 09:15:44 51°21.711 2°58.137 128.3 0.3 222 13.3
2006-11-23 09:15:49 51°21.711 2°58.136 127.8 0.1 271 13.4
2006-11-23 09:15:54 51°21.711 2°58.136 127.7 0.1 231 13.4
2006-11-23 09:15:59 51°21.71 2°58.136 127.4 0.1 184 13.4
2006-11-23 09:16:04 51°21.71 2°58.136 127 0.3 193 13.4
2006-11-23 09:16:09 51°21.71 2°58.136 127 0.2 201 13.4
2006-11-23 09:16:14 51°21.709 2°58.135 126.9 0.2 235 13.4
2006-11-23 09:16:19 51°21.71 2°58.135 127.4 0.1 254 13.4
2006-11-23 09:16:24 51°21.709 2°58.135 127.1 0.3 207 13.4
2006-11-23 09:16:29 51°21.709 2°58.135 126.2 0.1 202 13.4
2006-11-23 09:16:34 51°21.709 2°58.135 126 0.1 227 13.4
2006-11-23 09:16:39 51°21.709 2°58.134 126.7 0.2 261 13.4
2006-11-23 09:16:44 51°21.709 2°58.134 126.8 0.1 311 13.4
2006-11-23 09:16:49 51°21.708 2°58.134 127 0.2 219 13.3
2006-11-23 09:16:54 51°21.708 2°58.134 127 0.1 170 13.2
2006-11-23 09:16:59 51°21.708 2°58.134 127 0.2 222 13.4
2006-11-23 09:17:04 51°21.708 2°58.134 126.9 0.1 279 13.6
2006-11-23 09:17:09 51°21.708 2°58.134 127 -999 198 13.4
2006-11-23 09:17:14 51°21.708 2°58.134 126.9 0.1 132 13.4
2006-11-23 09:17:19 51°21.708 2°58.133 126.3 0.3 196 13.4
2006-11-23 09:17:24 51°21.707 2°58.133 126.2 0.1 158 13.3
2006-11-23 09:17:29 51°21.707 2°58.133 126.5 0.3 196 13.3
2006-11-23 09:17:34 51°21.707 2°58.133 126.5 0.1 137 13.3
2006-11-23 09:17:39 51°21.707 2°58.133 126.7 0.1 207 13.3
2006-11-23 09:17:44 51°21.707 2°58.133 127 0.1 216 13.3
2006-11-23 09:17:49 51°21.707 2°58.133 126.9 0.1 237 13.4
2006-11-23 09:17:54 51°21.707 2°58.132 126.7 0.2 203 13.4
2006-11-23 09:17:59 51°21.706 2°58.132 126.3 0.1 171 13.4
2006-11-23 09:18:03 51°21.706 2°58.133 126.4 0.2 196 13.3
2006-11-23 09:18:09 51°21.706 2°58.132 126.3 0.1 237 13.4
2006-11-23 09:18:14 51°21.706 2°58.132 126.5 -999 291 13.3
2006-11-23 09:18:19 51°21.705 2°58.132 126.5 0.2 223 13.4
2006-11-23 09:18:24 51°21.705 2°58.132 126.2 0.1 193 13.4
2006-11-23 09:18:29 51°21.705 2°58.131 126.3 0.2 213 13.4
2006-11-23 09:18:34 51°21.705 2°58.131 126.2 0.1 239 13.4
2006-11-23 09:18:39 51°21.705 2°58.131 126.5 0.1 287 13.5
2006-11-23 09:18:44 51°21.705 2°58.131 126.6 0.1 320 13.4
2006-11-23 09:18:49 51°21.705 2°58.13 126.5 0.2 228 13.3
2006-11-23 09:18:54 51°21.704 2°58.13 126.4 0.2 205 13.2
2006-11-23 09:18:59 51°21.704 2°58.13 126.8 0.3 215 13.3
2006-11-23 09:19:04 51°21.703 2°58.13 127.1 -999 90 13.3
2006-11-23 09:19:09 51°21.704 2°58.13 127.8 0.2 212 13.4
2006-11-23 09:19:14 51°21.703 2°58.13 128.4 0.1 207 13.4
2006-11-23 09:19:19 51°21.703 2°58.13 128.4 0.2 212 13.4
2006-11-23 09:19:24 51°21.703 2°58.129 128.7 0.1 201 13.5
2006-11-23 09:19:29 51°21.703 2°58.129 128.6 0.2 209 13.4
2006-11-23 09:19:34 51°21.703 2°58.129 128.6 0.1 203 13.5
2006-11-23 09:19:39 51°21.703 2°58.129 129 0.2 216 13.4
2006-11-23 09:19:44 51°21.703 2°58.128 128.5 0.2 232 13.6
2006-11-23 09:19:49 51°21.703 2°58.128 128.9 0.1 279 13.4
2006-11-23 09:19:54 51°21.703 2°58.128 128.5 0.2 251 13.4
2006-11-23 09:19:59 51°21.702 2°58.127 128.7 0.1 244 13.3
2006-11-23 09:20:04 51°21.702 2°58.126 128.4 0.1 191 13.2
2006-11-23 09:20:09 51°21.702 2°58.126 128.2 0.4 203 13.2
2006-11-23 09:20:14 51°21.702 2°58.126 128.1 0.1 252 13.3
2006-11-23 09:20:19 51°21.702 2°58.126 129.2 0.2 265 13.3
2006-11-23 09:20:24 51°21.702 2°58.126 129.4 0.1 245 13.3
2006-11-23 09:20:29 51°21.702 2°58.125 128.9 0.2 204 13.2
2006-11-23 09:20:34 51°21.701 2°58.125 128.7 0.1 208 13.4
2006-11-23 09:20:39 51°21.701 2°58.125 129.1 0.1 204 13.4
2006-11-23 09:20:44 51°21.701 2°58.125 128.7 0.2 212 13.3
2006-11-23 09:20:49 51°21.701 2°58.125 128.3 0.2 206 13.4
2006-11-23 09:20:54 51°21.701 2°58.124 128.4 0.1 287 13.4
2006-11-23 09:20:59 51°21.701 2°58.124 129 0.2 256 13.4
2006-11-23 09:21:04 51°21.701 2°58.124 129.3 0.2 248 13.3
2006-11-23 09:21:09 51°21.7 2°58.124 129.5 0.2 226 13.3
2006-11-23 09:21:14 51°21.7 2°58.123 129.9 0.1 231 13.3
2006-11-23 09:21:19 51°21.7 2°58.123 129.9 0.3 210 13.5
2006-11-23 09:21:24 51°21.7 2°58.122 129.8 0.1 261 13.5
2006-11-23 09:21:29 51°21.7 2°58.122 129.6 0.1 291 13.6
2006-11-23 09:21:34 51°21.7 2°58.122 129.5 0.1 220 13.4
2006-11-23 09:21:39 51°21.7 2°58.122 128.5 0.1 250 13.5
2006-11-23 09:21:43 51°21.7 2°58.122 127.8 0.2 253 13.4
2006-11-23 09:21:49 51°21.7 2°58.121 127.8 0.1 268 13.2
2006-11-23 09:21:54 51°21.7 2°58.121 127.2 0.1 226 13.1
2006-11-23 09:21:59 51°21.699 2°58.121 126.7 0.3 227 13.2
2006-11-23 09:22:04 51°21.7 2°58.12 126.2 0.2 232 13.2
2006-11-23 09:22:09 51°21.7 2°58.12 126.2 0.1 223 13.2
2006-11-23 09:22:14 51°21.699 2°58.119 126.2 0.2 222 13.3
2006-11-23 09:22:19 51°21.699 2°58.119 126 0.2 285 13.4
2006-11-23 09:22:24 51°21.699 2°58.119 126.4 0.3 255 13.5
2006-11-23 09:22:29 51°21.699 2°58.118 126.2 0.2 297 13.5
2006-11-23 09:22:34 51°21.699 2°58.118 126.3 0.2 226 13.4
2006-11-23 09:22:39 51°21.699 2°58.118 125.5 0.2 239 13.4
2006-11-23 09:22:44 51°21.699 2°58.118 125.5 0.1 312 13.6
2006-11-23 09:22:49 51°21.699 2°58.117 125.4 0.3 253 13.5
2006-11-23 09:22:54 51°21.699 2°58.118 125.1 0.1 323 13.5
2006-11-23 09:22:59 51°21.699 2°58.117 125.5 0.2 238 13.5
2006-11-23 09:23:04 51°21.699 2°58.117 125 0.2 332 13.5
2006-11-23 09:23:09 51°21.699 2°58.117 125.3 0.1 300 13.3
2006-11-23 09:23:14 51°21.699 2°58.117 124.9 0.2 218 13.2
2006-11-23 09:23:19 51°21.698 2°58.117 124.7 0.2 227 13.3
2006-11-23 09:23:24 51°21.698 2°58.116 124.8 0.1 295 13.4
2006-11-23 09:23:29 51°21.698 2°58.116 125.2 0.2 271 13.4
2006-11-23 09:23:34 51°21.698 2°58.116 125.4 0.1 257 13.4
2006-11-23 09:23:39 51°21.698 2°58.116 125.1 0.2 196 13.3
2006-11-23 09:23:44 51°21.698 2°58.115 124.8 0.2 188 13.3
2006-11-23 09:23:49 51°21.697 2°58.116 124.8 0.1 211 13.4
2006-11-23 09:23:54 51°21.697 2°58.116 125.1 0.1 217 13.3
2006-11-23 09:23:59 51°21.697 2°58.115 125 0.2 187 13.3
2006-11-23 09:24:04 51°21.697 2°58.115 125.3 -999 141 13.4
2006-11-23 09:24:09 51°21.697 2°58.115 125 0.3 215 13.4
2006-11-23 09:24:14 51°21.697 2°58.115 125.8 -999 261 13.3
2006-11-23 09:24:19 51°21.696 2°58.115 125.4 0.3 209 13.4
2006-11-23 09:24:24 51°21.696 2°58.114 125.5 -999 330 13.5
2006-11-23 09:24:29 51°21.696 2°58.114 125.6 0.1 273 13.7
2006-11-23 09:24:34 51°21.696 2°58.114 125.5 0.1 315 13.5
2006-11-23 09:24:39 51°21.696 2°58.114 125.2 0.2 180 13.3